TimeCDT,TemperatureF,Dew PointF,Humidity,Sea Level PressureIn,VisibilityMPH,Wind Direction,Wind SpeedMPH,Gust SpeedMPH,PrecipitationIn,Events,Conditions,WindDirDegrees,DateUTC
12:53 AM,36.0,32.0,86,30.29,10.0,Calm,Calm,-,N/A,,Clear,0,2012-10-06 05:53:00
1:53 AM,39.0,33.1,79,30.31,10.0,WNW,3.5,-,N/A,,Clear,290,2012-10-06 06:53:00
2:53 AM,39.9,33.1,77,30.31,10.0,WNW,4.6,-,N/A,,Mostly Cloudy,300,2012-10-06 07:53:00
3:53 AM,41.0,33.1,73,30.29,10.0,NW,4.6,-,N/A,,Overcast,310,2012-10-06 08:53:00
4:53 AM,41.0,33.1,73,30.30,10.0,NNW,5.8,-,N/A,,Clear,330,2012-10-06 09:53:00
5:53 AM,41.0,30.0,65,30.29,10.0,North,9.2,-,N/A,,Clear,350,2012-10-06 10:53:00
6:53 AM,41.0,28.9,62,30.29,10.0,North,5.8,-,N/A,,Clear,360,2012-10-06 11:53:00
7:53 AM,41.0,28.0,60,30.30,10.0,North,6.9,-,N/A,,Clear,360,2012-10-06 12:53:00
8:53 AM,41.0,27.0,57,30.32,10.0,North,8.1,-,N/A,,Clear,360,2012-10-06 13:53:00
9:53 AM,43.0,24.1,47,30.34,10.0,North,13.8,-,N/A,,Clear,10,2012-10-06 14:53:00
10:53 AM,43.0,21.0,42,30.36,10.0,North,13.8,-,N/A,,Mostly Cloudy,350,2012-10-06 15:53:00
11:53 AM,43.0,21.9,43,30.35,10.0,North,11.5,-,N/A,,Overcast,350,2012-10-06 16:53:00
12:53 PM,45.0,23.0,42,30.35,10.0,North,9.2,-,N/A,,Scattered Clouds,350,2012-10-06 17:53:00
1:53 PM,43.0,21.9,43,30.33,10.0,NNW,9.2,-,N/A,,Mostly Cloudy,340,2012-10-06 18:53:00
2:53 PM,44.1,24.1,45,30.31,10.0,North,8.1,-,N/A,,Overcast,350,2012-10-06 19:53:00
3:53 PM,43.0,24.1,47,30.30,10.0,NW,6.9,-,N/A,,Mostly Cloudy,320,2012-10-06 20:53:00
4:53 PM,44.1,25.0,47,30.29,10.0,North,9.2,-,N/A,,Mostly Cloudy,360,2012-10-06 21:53:00
5:53 PM,44.1,25.0,47,30.29,10.0,North,6.9,-,N/A,,Overcast,350,2012-10-06 22:53:00
6:53 PM,44.1,25.0,47,30.30,10.0,NNW,5.8,-,N/A,,Mostly Cloudy,340,2012-10-06 23:53:00
7:53 PM,43.0,26.1,51,30.31,10.0,NNW,5.8,-,N/A,,Overcast,330,2012-10-07 00:53:00
8:53 PM,42.1,26.1,53,30.32,10.0,NW,3.5,-,N/A,,Overcast,310,2012-10-07 01:53:00
9:53 PM,42.1,26.1,53,30.32,10.0,NW,3.5,-,N/A,,Overcast,310,2012-10-07 02:53:00
10:53 PM,41.0,26.1,55,30.32,10.0,NW,4.6,-,N/A,,Overcast,320,2012-10-07 03:53:00